Wind_Speed
33 32 31 29 27 25 21 18 14 10 5 6 8 9 10 11 11 12 13 9 7 8 11 15 18 21 23 22 19 15 15 15 6 18 24 25 26 23 14 13 8 11 15
34 33 30 28 24 23 21 17 12 9 5 4 6 8 10 11 11 13 9 6 7 10 13 17 22 25 23 19 18 16 15 14 13 15 25 28 26 24 13 14 13 11 9
33 32 31 28 25 22 19 15 13 9 6 4 3 5 8 9 10 7 6 6 7 8 13 18 23 21 20 18 17 18 17 16 15 16 20 23 24 19 19 11 9 10 11
34 33 32 30 27 22 17 15 11 8 6 5 3 4 7 8 7 7 6 6 7 9 13 17 20 17 17 19 18 16 17 17 16 17 18 20 19 18 15 15 10 7 9
35 34 35 32 25 20 16 13 10 8 7 5 2 3 5 6 7 6 3 4 7 12 15 17 16 16 13 13 14 14 15 16 17 17 15 16 15 18 17 18 14 14 13
30 32 33 27 24 19 13 8 6 6 4 3 1 3 5 7 7 1 5 9 11 12 14 14 14 13 12 11 12 12 11 13 14 14 12 11 12 14 16 18 17 5 3
19 16 22 24 19 15 13 11 6 2 1 1 3 6 7 7 5 8 10 11 12 13 11 12 11 12 13 14 13 14 12 7 7 9 8 8 12 15 20 19 17 16 6
22 24 25 23 21 17 13 9 7 4 7 9 10 11 12 13 10 10 10 12 11 11 10 11 11 12 13 15 14 13 15 8 7 9 11 14 15 17 18 20 20 19 15
27 31 29 23 16 8 6 6 5 7 9 11 12 14 12 11 12 11 13 14 14 13 11 10 11 12 16 15 14 15 15 10 10 15 18 18 20 19 18 20 22 17 8
26 24 18 15 15 9 6 6 6 5 6 9 8 8 11 13 13 12 13 15 13 16 14 13 13 14 16 16 14 14 17 18 22 26 27 26 21 21 21 17 16 16 11
23 22 16 14 11 5 1 5 3 4 6 7 8 10 11 13 14 16 16 17 17 17 15 15 16 15 15 16 15 15 14 17 23 26 27 26 23 21 19 18 15 16 16
23 19 15 12 5 4 3 5 5 9 11 11 12 14 16 17 18 19 19 20 20 18 20 20 17 15 18 19 18 18 19 20 27 28 25 23 20 18 16 12 12 14 16
15 11 10 8 7 7 9 9 9 11 13 15 14 13 15 17 19 20 21 21 20 20 19 19 23 20 22 22 21 21 23 23 22 20 22 22 19 17 17 14 13 14 14
14 12 15 11 11 9 8 11 14 14 13 13 14 15 17 19 19 19 18 18 20 21 21 21 20 23 24 25 24 23 20 17 17 20 21 22 20 17 16 14 14 10 11
17 16 18 16 15 15 13 12 11 11 15 18 18 17 17 18 18 19 18 18 20 21 23 24 21 19 18 17 17 19 19 19 17 19 20 17 16 16 15 12 12 10 9
19 18 15 13 11 9 11 11 12 16 16 14 16 17 21 20 23 27 26 26 26 25 23 17 17 17 17 17 17 17 16 17 17 18 18 17 14 13 16 14 11 12 11
18 16 17 14 13 13 15 17 20 17 14 17 17 18 18 21 22 23 23 23 23 21 18 18 18 17 17 17 17 16 16 16 16 15 15 15 13 12 12 12 11 9 10
14 16 18 18 19 19 20 17 15 18 21 21 22 22 20 20 21 23 21 20 18 16 17 17 16 16 17 17 16 16 16 16 15 14 14 15 15 13 11 10 9 10 7
20 22 24 23 19 18 17 15 15 16 18 20 23 22 22 23 23 19 20 17 17 16 17 16 18 17 17 18 17 17 16 15 14 12 13 12 13 12 9 9 8 8 8
19 21 21 17 16 14 16 16 16 17 18 20 20 23 25 25 22 21 18 18 18 18 19 19 19 20 19 17 17 17 16 15 14 14 14 14 12 11 11 12 11 12 11
14 13 17 21 20 19 16 17 18 19 18 20 21 23 26 25 23 21 21 20 20 21 21 20 19 20 19 18 17 15 16 16 15 14 13 12 10 10 11 11 12 13 13
16 19 21 23 23 23 20 18 19 19 20 21 24 24 25 22 21 22 22 22 23 23 20 21 20 21 20 19 17 16 15 13 13 12 10 12 11 10 12 12 12 13 12
19 20 23 25 24 25 25 23 20 20 22 23 24 25 24 23 23 23 23 25 25 23 21 20 21 21 20 21 17 17 16 16 14 12 13 11 11 11 12 12 12 11 10
21 20 23 26 26 26 25 25 25 22 23 23 25 24 25 25 25 26 26 26 26 25 23 21 20 22 21 20 21 17 17 16 15 14 13 14 9 10 12 12 12 11 11
23 20 23 26 26 26 27 27 26 24 23 24 25 25 26 26 26 26 26 26 27 26 26 25 22 20 19 18 18 19 17 15 15 15 15 16 13 13 10 8 9 10 11
23 20 22 26 27 27 27 28 28 28 25 26 26 27 27 28 28 28 28 28 28 29 28 24 21 19 15 15 16 18 11 16 13 13 13 16 14 14 13 11 12 12 11
Wind_Direction
154 150 150 152 155 153 150 144 135 127 100 65 50 38 27 21 14 9 4 4 11 9 3 359 353 346 340 335 330 328 335 348 309 317 330 342 346 339 267 286 285 290 313
163 158 159 158 162 159 157 153 150 143 125 87 57 40 22 9 7 359 9 26 14 2 359 351 344 338 334 331 329 322 320 323 324 309 325 336 343 348 305 290 269 262 267
166 164 164 166 173 174 167 162 158 152 147 135 76 48 31 7 11 36 19 359 356 357 355 347 342 334 331 334 332 321 314 314 314 310 309 321 334 348 350 305 287 251 215
175 174 174 179 181 178 174 171 167 164 162 154 126 49 17 9 2 341 332 333 337 340 337 341 342 335 329 327 325 322 320 317 319 314 309 314 324 340 349 353 303 241 190
183 182 185 184 180 177 172 171 170 160 148 138 96 38 14 357 344 339 335 341 339 344 339 340 339 336 327 324 318 314 315 315 317 319 313 312 323 339 351 343 331 296 221
186 189 189 183 170 164 161 154 151 140 142 129 91 341 334 338 351 268 329 322 321 327 336 336 344 348 343 340 338 337 308 296 301 309 311 315 315 328 341 352 339 318 279
174 172 170 158 150 147 145 147 138 125 90 52 355 335 337 347 334 316 315 318 318 314 310 323 335 345 342 344 339 335 336 321 295 310 345 2 336 332 332 334 333 336 347
130 123 126 123 117 118 117 104 91 32 360 348 339 334 325 316 313 318 321 318 315 317 309 305 310 336 341 337 335 322 331 333 336 336 336 332 330 324 325 320 315 320 318
95 102 110 108 97 79 100 81 47 10 339 331 336 338 323 316 310 308 318 309 308 306 306 292 294 303 319 325 329 329 313 329 322 320 320 312 307 307 309 315 315 329 317
94 91 90 72 75 59 32 46 29 15 335 312 332 323 319 318 311 306 311 312 305 305 298 295 290 301 301 304 306 320 322 316 322 318 311 309 307 306 294 290 297 291 292
89 91 100 90 90 89 343 60 27 315 328 326 311 315 319 316 319 312 306 301 298 292 290 293 294 296 295 291 291 298 304 313 315 314 306 300 301 307 304 283 275 274 270
76 71 76 81 89 83 12 18 346 328 326 310 317 314 314 309 310 306 303 304 299 294 290 292 291 296 300 296 286 290 291 300 308 308 304 304 302 307 313 293 273 267 266
81 104 79 77 62 28 14 356 335 329 324 327 321 319 312 311 304 305 303 301 300 295 287 287 294 296 299 297 288 287 295 299 302 295 297 298 297 301 303 296 291 273 281
99 73 74 49 35 23 6 356 352 342 326 327 339 321 308 303 303 304 305 306 304 298 291 289 289 288 288 288 283 286 285 279 277 282 289 297 298 292 291 299 295 288 292
74 57 50 37 23 16 9 356 328 327 348 343 323 309 307 304 308 308 313 314 311 305 300 292 283 278 269 266 266 269 271 278 266 269 278 287 283 281 282 292 285 288 284
57 48 42 35 23 10 352 342 355 0 350 330 319 324 323 318 315 314 313 307 303 296 298 284 277 267 263 266 262 263 263 258 258 263 268 273 280 271 276 283 277 271 272
50 40 36 26 19 3 3 357 355 344 340 345 339 334 329 321 322 319 316 315 312 312 288 278 274 271 269 268 265 261 260 258 259 256 260 259 264 277 277 281 272 262 269
47 36 28 21 13 5 360 348 335 333 334 332 337 336 332 331 328 323 320 320 315 311 302 291 273 275 276 269 267 265 265 260 258 255 250 253 254 250 255 272 290 258 272
34 27 21 13 6 354 340 326 332 331 331 327 334 334 332 333 327 329 330 322 312 307 304 305 300 284 283 276 271 267 262 259 258 253 251 249 249 239 239 258 279 276 276
25 22 15 3 2 348 349 346 338 335 334 334 327 327 330 332 329 327 327 326 317 308 305 303 305 296 288 284 281 264 262 261 263 258 249 252 256 249 251 248 255 264 269
17 9 8 12 10 8 356 348 341 339 334 328 326 326 331 325 316 317 320 316 316 312 309 300 301 299 289 288 274 279 259 260 259 251 244 243 252 245 249 249 256 262 262
14 10 10 10 9 8 3 353 344 338 332 328 327 326 330 326 320 318 317 317 314 317 309 304 299 296 290 290 271 273 269 256 251 236 250 248 246 251 251 251 255 258 257
11 9 8 8 8 6 5 359 345 336 332 329 328 326 328 324 322 322 319 318 319 317 315 303 297 296 287 278 282 265 263 259 255 247 252 261 246 246 245 249 256 253 259
8 8 7 7 7 5 360 350 347 338 332 329 328 326 325 323 322 321 321 320 321 319 318 312 300 294 288 282 263 269 253 253 252 248 250 248 248 241 246 249 238 248 269
7 7 7 7 7 2 356 351 346 340 333 330 328 327 325 325 323 321 321 320 319 319 317 314 307 302 291 275 266 254 257 245 242 241 242 243 247 242 249 240 251 261 271
6 8 6 6 6 3 357 351 346 341 333 330 327 326 325 324 324 323 322 321 320 319 321 319 313 309 295 275 263 236 251 244 241 236 237 231 232 237 239 240 258 261 273
Height
785 788 793 799 802 803 806 809 809 813 817 818 818 819 820 818 817 817 818 817 816 815 814 813 812 810 807 805 803 801 799 797 793 784 780 775 769 763 761 760 759 760 762
782 784 793 797 805 804 805 805 808 810 814 816 816 816 818 819 816 816 816 815 815 815 813 812 810 808 805 803 800 798 797 795 793 787 780 775 771 766 763 762 761 762 762
783 784 789 795 802 805 804 806 806 808 811 814 814 814 814 818 816 815 816 815 814 813 812 811 809 806 803 800 798 795 793 791 790 787 781 777 773 769 765 763 761 760 760
781 783 787 792 798 803 805 807 808 808 810 812 812 811 811 814 815 813 813 813 812 810 811 810 807 804 801 798 796 793 790 787 785 783 780 777 774 771 769 767 763 762 760
778 781 784 791 796 803 806 808 810 810 811 812 811 811 811 813 812 810 809 808 808 806 806 807 804 802 799 796 794 791 789 786 784 781 778 776 774 772 771 770 766 762 758
775 780 783 790 793 801 809 812 815 812 810 809 811 812 811 810 807 806 805 805 804 803 802 801 800 798 796 794 792 789 787 784 783 781 778 777 775 775 774 772 768 761 755
777 784 786 791 798 802 804 806 811 815 814 810 808 810 810 808 807 805 803 801 800 799 799 798 796 796 792 793 789 787 785 783 782 780 779 778 777 775 774 772 772 767 759
776 784 787 794 799 802 803 806 805 812 813 813 811 808 807 807 804 803 802 799 796 796 795 794 794 794 792 790 787 786 784 782 781 779 778 777 777 774 772 769 767 764 761
782 786 788 791 798 804 802 801 803 805 810 812 810 806 804 802 802 801 798 799 794 793 792 791 792 790 791 788 787 785 783 782 780 778 777 775 773 772 770 767 762 761 759
784 788 791 798 798 805 808 803 805 806 810 813 806 806 804 801 800 796 794 794 791 791 790 788 788 787 788 786 785 784 782 779 776 773 772 771 769 768 766 765 763 762 760
786 784 795 795 795 803 814 803 807 810 806 806 805 802 799 799 797 794 792 789 787 787 786 785 785 784 784 782 781 780 779 777 774 772 769 766 764 762 760 758 758 758 757
792 797 797 799 807 804 809 805 805 807 804 804 797 795 795 794 792 791 789 786 784 782 781 780 780 780 779 778 777 775 774 772 770 767 765 762 759 757 755 753 752 752 752
807 803 805 802 805 806 803 804 804 803 802 796 794 789 790 789 788 785 784 781 779 776 775 775 774 774 773 772 771 770 769 767 765 763 761 758 756 754 752 750 749 748 747
807 812 799 810 807 806 804 803 799 799 801 795 787 788 787 786 784 781 779 776 773 772 770 768 768 767 766 764 763 763 762 762 761 759 757 754 751 749 748 746 745 745 743
811 811 803 807 807 802 802 804 807 802 791 785 789 789 785 782 779 776 773 770 768 767 764 762 760 759 758 756 756 755 755 755 754 753 753 751 749 746 744 743 742 742 741
811 809 813 812 811 810 806 804 798 786 784 789 789 786 780 777 774 771 768 765 762 760 757 755 753 751 750 749 749 748 748 748 748 747 747 747 746 744 742 740 740 739 738
814 817 810 809 807 808 800 794 784 788 789 787 785 781 776 773 769 766 762 759 756 754 751 748 746 745 743 743 742 742 742 742 742 742 742 742 743 741 740 738 737 736 735
819 815 809 805 803 801 796 792 792 789 783 781 778 775 772 769 765 761 758 754 750 748 745 743 740 740 739 738 737 737 737 737 736 737 737 737 738 738 737 735 734 734 734
812 809 807 804 802 800 803 797 791 788 784 778 774 772 770 766 761 757 754 751 747 744 741 739 737 735 734 732 732 732 732 731 731 732 732 733 733 733 733 733 732 731 731
815 811 811 812 808 804 801 794 790 787 782 778 774 771 766 762 757 754 750 747 743 740 738 735 733 731 729 728 727 726 726 726 727 726 727 728 729 729 730 730 730 729 729
820 822 817 809 806 802 797 795 791 785 782 778 774 770 766 761 755 751 746 743 740 736 734 731 729 726 725 723 722 722 721 722 722 723 723 724 725 726 726 726 726 726 727
824 819 814 809 805 801 798 793 789 785 781 776 771 766 762 757 752 747 742 738 735 732 729 726 723 722 720 718 717 717 717 717 717 718 720 721 722 723 723 723 723 723 724
823 818 814 809 805 800 795 791 788 784 779 774 769 763 758 754 748 743 738 734 730 726 723 721 718 716 714 713 712 712 712 713 714 715 716 717 718 720 720 720 720 720 721
823 818 814 808 803 799 794 791 786 782 777 772 767 761 756 750 745 739 735 730 725 721 718 715 712 710 708 706 706 705 707 708 709 711 713 713 714 716 717 717 717 718 718
821 817 813 808 803 799 794 790 785 780 775 770 765 759 753 747 741 735 730 726 721 716 712 709 706 702 700 699 699 700 701 703 704 706 708 709 710 712 713 713 715 715 715
822 817 813 809 804 799 795 789 784 779 774 768 762 756 750 743 737 732 726 721 716 711 707 703 699 696 694 693 693 694 695 697 700 701 704 705 706 708 709 711 712 712 712